Wetterdaten: Donnerstag, 23.04.2015
Datum Zeit Temp. A. Feuchte A. Luftdruck Regen Wind Richtung Richtung Sonnenschein ET UV Solar Taupunkt Windchill Windben Empfang
23.04.2015 00:00 9,8 C 70 % 1019,2 hPa 0,0 l/m 0,0 km/h (0 Bft) SO 130 0 min 0,000 mm 0,0 UV-I 0 W/m 4,6 C 9,8 C 0,0 km/h (0 Bft) 0,00 %
23.04.2015 00:15 9,6 C 70 % 1019,1 hPa 0,0 l/m 4,3 km/h (1 Bft) S-SW 209 0 min 0,000 mm 0,0 UV-I 0 W/m 4,4 C 9,6 C 7,9 km/h (2 Bft) 0,00 %
23.04.2015 00:30 9,6 C 69 % 1019,5 hPa 0,0 l/m 2,2 km/h (1 Bft) W 266 0 min 0,000 mm 0,0 UV-I 0 W/m 4,2 C 9,6 C 4,0 km/h (1 Bft) 0,00 %
23.04.2015 00:45 9,6 C 69 % 1019,2 hPa 0,0 l/m 6,5 km/h (2 Bft) N-NO 15 0 min 0,000 mm 0,0 UV-I 0 W/m 4,2 C 9,6 C 11,9 km/h (2 Bft) 0,00 %
23.04.2015 01:00 9,5 C 69 % 1019,7 hPa 0,0 l/m 0,0 km/h (0 Bft) S 177 0 min 0,000 mm 0,0 UV-I 0 W/m 4,1 C 9,5 C 0,0 km/h (0 Bft) 0,00 %
23.04.2015 01:15 9,5 C 69 % 1019,3 hPa 0,0 l/m 3,2 km/h (1 Bft) W-NW 300 0 min 0,000 mm 0,0 UV-I 0 W/m 4,1 C 9,5 C 7,9 km/h (2 Bft) 0,00 %
23.04.2015 01:30 9,4 C 71 % 1019,1 hPa 0,0 l/m 0,7 km/h (0 Bft) N-NW 338 0 min 0,000 mm 0,0 UV-I 0 W/m 4,4 C 9,4 C 4,0 km/h (1 Bft) 0,00 %
23.04.2015 01:45 9,0 C 76 % 1019,0 hPa 0,0 l/m 1,4 km/h (1 Bft) W-NW 300 0 min 0,000 mm 0,0 UV-I 0 W/m 5,0 C 9,0 C 4,0 km/h (1 Bft) 0,00 %
23.04.2015 02:00 8,5 C 80 % 1019,0 hPa 0,0 l/m 0,0 km/h (0 Bft) S 182 0 min 0,000 mm 0,0 UV-I 0 W/m 5,3 C 8,5 C 0,0 km/h (0 Bft) 0,00 %
23.04.2015 02:15 8,4 C 81 % 1018,9 hPa 0,0 l/m 0,4 km/h (0 Bft) SO 136 0 min 0,000 mm 0,0 UV-I 0 W/m 5,3 C 8,4 C 4,0 km/h (1 Bft) 0,00 %
23.04.2015 02:30 8,2 C 82 % 1018,8 hPa 0,0 l/m 0,4 km/h (0 Bft) N 5 0 min 0,000 mm 0,0 UV-I 0 W/m 5,3 C 8,2 C 4,0 km/h (1 Bft) 0,00 %
23.04.2015 02:45 8,2 C 83 % 1019,1 hPa 0,0 l/m 0,0 km/h (0 Bft) SW 232 0 min 0,000 mm 0,0 UV-I 0 W/m 5,5 C 8,2 C 0,0 km/h (0 Bft) 0,00 %
23.04.2015 03:00 8,2 C 84 % 1018,8 hPa 0,0 l/m 0,0 km/h (0 Bft) SO 136 0 min 0,000 mm 0,0 UV-I 0 W/m 5,7 C 8,2 C 0,0 km/h (0 Bft) 0,00 %
23.04.2015 03:15 8,1 C 85 % 1018,8 hPa 0,0 l/m 0,0 km/h (0 Bft) S 185 0 min 0,000 mm 0,0 UV-I 0 W/m 5,7 C 8,1 C 0,0 km/h (0 Bft) 0,00 %
23.04.2015 03:30 8,1 C 86 % 1018,9 hPa 0,0 l/m 0,0 km/h (0 Bft) S 182 0 min 0,000 mm 0,0 UV-I 0 W/m 5,9 C 8,1 C 0,0 km/h (0 Bft) 0,00 %
23.04.2015 03:45 8,1 C 86 % 1018,8 hPa 0,0 l/m 0,0 km/h (0 Bft) S 178 0 min 0,000 mm 0,0 UV-I 0 W/m 5,9 C 8,1 C 0,0 km/h (0 Bft) 0,00 %
23.04.2015 04:00 8,1 C 86 % 1018,9 hPa 0,0 l/m 0,0 km/h (0 Bft) S 179 0 min 0,000 mm 0,0 UV-I 0 W/m 5,9 C 8,1 C 0,0 km/h (0 Bft) 0,00 %
23.04.2015 04:15 8,2 C 87 % 1018,7 hPa 0,0 l/m 0,0 km/h (0 Bft) S 173 0 min 0,000 mm 0,0 UV-I 0 W/m 6,2 C 8,2 C 0,0 km/h (0 Bft) 0,00 %
23.04.2015 04:30 8,0 C 88 % 1018,5 hPa 0,0 l/m 0,0 km/h (0 Bft) S 172 0 min 0,000 mm 0,0 UV-I 0 W/m 6,1 C 8,0 C 0,0 km/h (0 Bft) 0,00 %
23.04.2015 04:45 7,8 C 89 % 1018,9 hPa 0,3 l/m 0,0 km/h (0 Bft) S-SW 193 0 min 0,000 mm 0,0 UV-I 0 W/m 6,1 C 7,8 C 0,0 km/h (0 Bft) 0,00 %
23.04.2015 05:00 7,5 C 91 % 1018,9 hPa 1,2 l/m 4,3 km/h (1 Bft) NW 312 0 min 0,000 mm 0,0 UV-I 0 W/m 6,1 C 7,5 C 7,9 km/h (2 Bft) 0,00 %
23.04.2015 05:15 6,6 C 94 % 1018,9 hPa 0,6 l/m 0,0 km/h (0 Bft) S-SW 201 0 min 0,000 mm 0,0 UV-I 0 W/m 5,7 C 6,6 C 0,0 km/h (0 Bft) 0,00 %
23.04.2015 05:30 6,6 C 96 % 1019,2 hPa 0,3 l/m 0,0 km/h (0 Bft) S-SW 193 0 min 0,000 mm 0,0 UV-I 0 W/m 6,0 C 6,6 C 0,0 km/h (0 Bft) 0,00 %
23.04.2015 05:45 6,5 C 97 % 1019,2 hPa 0,0 l/m 0,0 km/h (0 Bft) S 182 0 min 0,000 mm 0,0 UV-I 0 W/m 6,1 C 6,5 C 0,0 km/h (0 Bft) 0,00 %
23.04.2015 06:00 6,4 C 97 % 1019,0 hPa 0,0 l/m 0,0 km/h (0 Bft) S 183 0 min 0,000 mm 0,0 UV-I 0 W/m 6,0 C 6,4 C 0,0 km/h (0 Bft) 0,00 %
23.04.2015 06:15 6,4 C 97 % 1018,9 hPa 0,0 l/m 0,0 km/h (0 Bft) SO 143 0 min 0,000 mm 0,0 UV-I 0 W/m 6,0 C 6,4 C 0,0 km/h (0 Bft) 0,00 %
23.04.2015 06:30 6,5 C 97 % 1019,0 hPa 0,0 l/m 0,0 km/h (0 Bft) S-SW 212 0 min 0,000 mm 0,0 UV-I 1 W/m 6,1 C 6,5 C 0,0 km/h (0 Bft) 0,00 %
23.04.2015 06:45 6,8 C 97 % 1018,6 hPa 0,0 l/m 0,0 km/h (0 Bft) S 190 0 min 0,000 mm 0,0 UV-I 17 W/m 6,4 C 6,8 C 0,0 km/h (0 Bft) 0,00 %
23.04.2015 07:00 6,9 C 97 % 1018,6 hPa 0,0 l/m 0,0 km/h (0 Bft) S-SW 196 0 min 0,000 mm 0,0 UV-I 22 W/m 6,5 C 6,9 C 0,0 km/h (0 Bft) 0,00 %
23.04.2015 07:15 6,9 C 97 % 1018,6 hPa 0,0 l/m 0,4 km/h (0 Bft) W-SW 255 0 min 0,000 mm 0,0 UV-I 38 W/m 6,5 C 6,9 C 4,0 km/h (1 Bft) 0,00 %
23.04.2015 07:30 6,7 C 95 % 1018,3 hPa 0,0 l/m 0,0 km/h (0 Bft) S 184 0 min 0,000 mm 1,0 UV-I 35 W/m 6,0 C 6,7 C 0,0 km/h (0 Bft) 0,00 %
23.04.2015 07:45 6,8 C 92 % 1018,5 hPa 0,0 l/m 0,0 km/h (0 Bft) S-SW 197 0 min 0,000 mm 1,0 UV-I 81 W/m 5,6 C 6,8 C 0,0 km/h (0 Bft) 0,00 %
23.04.2015 08:00 7,0 C 90 % 1018,4 hPa 0,0 l/m 0,0 km/h (0 Bft) S 186 0 min 0,000 mm 1,0 UV-I 32 W/m 5,5 C 7,0 C 0,0 km/h (0 Bft) 0,00 %
23.04.2015 08:15 7,0 C 88 % 1018,2 hPa 0,0 l/m 0,0 km/h (0 Bft) SW 218 0 min 0,000 mm 1,0 UV-I 102 W/m 5,2 C 7,0 C 0,0 km/h (0 Bft) 0,00 %
23.04.2015 08:30 7,3 C 87 % 1018,2 hPa 0,0 l/m 0,0 km/h (0 Bft) S-SW 202 0 min 0,000 mm 1,0 UV-I 114 W/m 5,3 C 7,3 C 0,0 km/h (0 Bft) 0,00 %
23.04.2015 08:45 7,9 C 84 % 1018,1 hPa 0,0 l/m 0,0 km/h (0 Bft) S-SW 194 0 min 0,000 mm 1,0 UV-I 154 W/m 5,4 C 7,9 C 0,0 km/h (0 Bft) 0,00 %
23.04.2015 09:00 8,6 C 82 % 1017,8 hPa 0,0 l/m 0,0 km/h (0 Bft) NW 313 15 min 0,000 mm 2,0 UV-I 266 W/m 5,7 C 8,6 C 0,0 km/h (0 Bft) 0,00 %
23.04.2015 09:15 8,4 C 80 % 1018,0 hPa 0,0 l/m 0,0 km/h (0 Bft) W-SW 252 0 min 0,000 mm 2,0 UV-I 172 W/m 5,2 C 8,4 C 0,0 km/h (0 Bft) 0,00 %
23.04.2015 09:30 8,4 C 81 % 1018,1 hPa 0,0 l/m 0,7 km/h (0 Bft) W-NW 293 0 min 0,000 mm 2,0 UV-I 203 W/m 5,3 C 8,4 C 4,0 km/h (1 Bft) 0,00 %
23.04.2015 09:45 8,7 C 79 % 1017,9 hPa 0,0 l/m 0,0 km/h (0 Bft) W-SW 256 0 min 0,000 mm 1,0 UV-I 228 W/m 5,3 C 8,7 C 0,0 km/h (0 Bft) 0,00 %
23.04.2015 10:00 9,0 C 80 % 1017,9 hPa 0,0 l/m 0,0 km/h (0 Bft) S-SW 209 0 min 0,000 mm 1,0 UV-I 169 W/m 5,7 C 9,0 C 0,0 km/h (0 Bft) 0,00 %
23.04.2015 10:15 9,1 C 81 % 1017,7 hPa 0,0 l/m 0,0 km/h (0 Bft) S-SW 209 0 min 0,000 mm 2,0 UV-I 175 W/m 6,0 C 9,1 C 0,0 km/h (0 Bft) 0,00 %
23.04.2015 10:30 9,8 C 80 % 1017,8 hPa 0,0 l/m 0,0 km/h (0 Bft) SW 214 0 min 0,000 mm 2,0 UV-I 242 W/m 6,5 C 9,8 C 0,0 km/h (0 Bft) 0,00 %
23.04.2015 10:45 9,6 C 81 % 1017,9 hPa 0,0 l/m 0,0 km/h (0 Bft) S 189 0 min 0,000 mm 2,0 UV-I 153 W/m 6,5 C 9,6 C 0,0 km/h (0 Bft) 0,00 %
23.04.2015 11:00 9,3 C 81 % 1017,8 hPa 0,0 l/m 0,0 km/h (0 Bft) SW 229 0 min 0,000 mm 1,0 UV-I 110 W/m 6,2 C 9,3 C 0,0 km/h (0 Bft) 0,00 %
23.04.2015 11:15 8,6 C 83 % 1017,9 hPa 0,0 l/m 0,0 km/h (0 Bft) S-SW 207 0 min 0,000 mm 1,0 UV-I 50 W/m 5,9 C 8,6 C 0,0 km/h (0 Bft) 0,00 %
23.04.2015 11:30 8,0 C 83 % 1018,2 hPa 0,0 l/m 0,0 km/h (0 Bft) SW 219 0 min 0,000 mm 1,0 UV-I 59 W/m 5,3 C 8,0 C 0,0 km/h (0 Bft) 0,00 %
23.04.2015 11:45 7,7 C 85 % 1018,1 hPa 0,0 l/m 0,0 km/h (0 Bft) SW 230 0 min 0,000 mm 1,0 UV-I 74 W/m 5,3 C 7,7 C 0,0 km/h (0 Bft) 0,00 %
23.04.2015 12:00 7,5 C 84 % 1018,3 hPa 0,0 l/m 0,0 km/h (0 Bft) S-SW 208 0 min 0,000 mm 1,0 UV-I 94 W/m 5,0 C 7,5 C 0,0 km/h (0 Bft) 0,00 %
23.04.2015 12:15 7,1 C 84 % 1018,2 hPa 0,0 l/m 2,9 km/h (1 Bft) W-NW 283 0 min 0,000 mm 1,0 UV-I 83 W/m 4,6 C 7,1 C 7,9 km/h (2 Bft) 0,00 %
23.04.2015 12:30 7,3 C 86 % 1018,2 hPa 0,0 l/m 0,0 km/h (0 Bft) SW 230 0 min 0,000 mm 1,0 UV-I 111 W/m 5,1 C 7,3 C 0,0 km/h (0 Bft) 0,00 %
23.04.2015 12:45 7,2 C 89 % 1018,4 hPa 0,3 l/m 3,2 km/h (1 Bft) NW 304 0 min 0,000 mm 1,0 UV-I 135 W/m 5,5 C 7,2 C 4,0 km/h (1 Bft) 0,00 %
23.04.2015 13:00 7,3 C 90 % 1018,1 hPa 0,0 l/m 1,4 km/h (1 Bft) SW 227 0 min 0,000 mm 1,0 UV-I 147 W/m 5,8 C 7,3 C 4,0 km/h (1 Bft) 0,00 %
23.04.2015 13:15 7,4 C 89 % 1018,3 hPa 0,0 l/m 0,7 km/h (0 Bft) W-SW 253 0 min 0,000 mm 1,0 UV-I 112 W/m 5,7 C 7,4 C 4,0 km/h (1 Bft) 0,00 %
23.04.2015 13:30 7,2 C 89 % 1018,7 hPa 0,0 l/m 7,2 km/h (2 Bft) W-SW 255 0 min 0,000 mm 0,0 UV-I 59 W/m 5,5 C 6,5 C 11,9 km/h (2 Bft) 0,00 %
23.04.2015 13:45 6,8 C 89 % 1018,7 hPa 0,0 l/m 5,4 km/h (1 Bft) W-SW 251 0 min 0,000 mm 0,0 UV-I 45 W/m 5,1 C 6,8 C 7,9 km/h (2 Bft) 0,00 %
23.04.2015 14:00 6,7 C 88 % 1018,7 hPa 0,0 l/m 0,0 km/h (0 Bft) S 175 0 min 0,000 mm 0,0 UV-I 47 W/m 4,9 C 6,7 C 0,0 km/h (0 Bft) 0,00 %
23.04.2015 14:15 6,7 C 89 % 1018,9 hPa 0,0 l/m 0,4 km/h (0 Bft) SW 226 0 min 0,000 mm 0,0 UV-I 73 W/m 5,0 C 6,7 C 4,0 km/h (1 Bft) 0,00 %
23.04.2015 14:30 6,4 C 90 % 1018,9 hPa 0,0 l/m 1,8 km/h (1 Bft) SW 229 0 min 0,000 mm 1,0 UV-I 42 W/m 4,9 C 6,4 C 4,0 km/h (1 Bft) 0,00 %
23.04.2015 14:45 6,2 C 91 % 1018,9 hPa 0,3 l/m 0,0 km/h (0 Bft) S 183 0 min 0,000 mm 1,0 UV-I 46 W/m 4,8 C 6,2 C 0,0 km/h (0 Bft) 0,00 %
23.04.2015 15:00 6,1 C 91 % 1019,0 hPa 0,0 l/m 3,2 km/h (1 Bft) W-NW 283 0 min 0,000 mm 1,0 UV-I 55 W/m 4,7 C 6,1 C 7,9 km/h (2 Bft) 0,00 %
23.04.2015 15:15 5,9 C 91 % 1019,1 hPa 0,0 l/m 1,4 km/h (1 Bft) W-NW 291 0 min 0,000 mm 1,0 UV-I 49 W/m 4,5 C 5,9 C 4,0 km/h (1 Bft) 0,00 %
23.04.2015 15:30 6,0 C 92 % 1019,1 hPa 0,3 l/m 0,0 km/h (0 Bft) S 173 0 min 0,000 mm 0,0 UV-I 65 W/m 4,8 C 6,0 C 0,0 km/h (0 Bft) 0,00 %
23.04.2015 15:45 5,7 C 92 % 1019,2 hPa 0,0 l/m 0,7 km/h (0 Bft) S 175 0 min 0,000 mm 1,0 UV-I 57 W/m 4,5 C 5,7 C 4,0 km/h (1 Bft) 0,00 %
23.04.2015 16:00 5,7 C 92 % 1019,2 hPa 0,3 l/m 0,7 km/h (0 Bft) W-SW 253 0 min 0,000 mm 1,0 UV-I 90 W/m 4,5 C 5,7 C 4,0 km/h (1 Bft) 0,00 %
23.04.2015 16:15 5,8 C 93 % 1019,3 hPa 0,3 l/m 0,0 km/h (0 Bft) N 357 0 min 0,000 mm 1,0 UV-I 52 W/m 4,8 C 5,8 C 0,0 km/h (0 Bft) 0,00 %
23.04.2015 16:30 6,0 C 94 % 1019,1 hPa 0,3 l/m 0,0 km/h (0 Bft) S 191 0 min 0,000 mm 0,0 UV-I 70 W/m 5,1 C 6,0 C 0,0 km/h (0 Bft) 0,00 %
23.04.2015 16:45 5,8 C 93 % 1019,3 hPa 0,0 l/m 0,0 km/h (0 Bft) W-SW 251 0 min 0,000 mm 0,0 UV-I 39 W/m 4,8 C 5,8 C 0,0 km/h (0 Bft) 0,00 %
23.04.2015 17:00 5,7 C 93 % 1019,3 hPa 0,3 l/m 0,7 km/h (0 Bft) SO 134 0 min 0,000 mm 0,0 UV-I 10 W/m 4,7 C 5,7 C 4,0 km/h (1 Bft) 0,00 %
23.04.2015 17:15 5,6 C 94 % 1019,0 hPa 1,2 l/m 0,0 km/h (0 Bft) SO 138 0 min 0,000 mm 0,0 UV-I 34 W/m 4,7 C 5,6 C 0,0 km/h (0 Bft) 0,00 %
23.04.2015 17:30 5,8 C 95 % 1019,1 hPa 0,3 l/m 0,4 km/h (0 Bft) NO 41 0 min 0,000 mm 0,0 UV-I 38 W/m 5,1 C 5,8 C 4,0 km/h (1 Bft) 0,00 %
23.04.2015 17:45 5,8 C 95 % 1018,9 hPa 0,0 l/m 0,0 km/h (0 Bft) S 183 0 min 0,000 mm 0,0 UV-I 35 W/m 5,1 C 5,8 C 0,0 km/h (0 Bft) 0,00 %
23.04.2015 18:00 5,9 C 94 % 1018,7 hPa 0,0 l/m 0,0 km/h (0 Bft) S-SW 202 0 min 0,000 mm 1,0 UV-I 50 W/m 5,0 C 5,9 C 0,0 km/h (0 Bft) 0,00 %
23.04.2015 18:15 6,0 C 94 % 1018,8 hPa 0,0 l/m 0,0 km/h (0 Bft) S 181 0 min 0,000 mm 0,0 UV-I 26 W/m 5,1 C 6,0 C 0,0 km/h (0 Bft) 0,00 %
23.04.2015 18:30 5,9 C 93 % 1018,7 hPa 0,0 l/m 0,0 km/h (0 Bft) S 183 0 min 0,000 mm 0,0 UV-I 29 W/m 4,9 C 5,9 C 0,0 km/h (0 Bft) 0,00 %
23.04.2015 18:45 6,0 C 93 % 1018,6 hPa 0,3 l/m 0,0 km/h (0 Bft) SO 135 0 min 0,000 mm 0,0 UV-I 30 W/m 5,0 C 6,0 C 0,0 km/h (0 Bft) 0,00 %
23.04.2015 19:00 6,0 C 93 % 1018,4 hPa 0,0 l/m 0,0 km/h (0 Bft) S-SO 151 0 min 0,000 mm 0,0 UV-I 19 W/m 5,0 C 6,0 C 0,0 km/h (0 Bft) 0,00 %
23.04.2015 19:15 5,9 C 93 % 1018,3 hPa 0,0 l/m 2,9 km/h (1 Bft) O-SO 110 0 min 0,000 mm 0,0 UV-I 5 W/m 4,9 C 5,9 C 4,0 km/h (1 Bft) 0,00 %
23.04.2015 19:30 5,9 C 94 % 1017,6 hPa 0,0 l/m 9,4 km/h (2 Bft) O 92 0 min 0,000 mm 0,0 UV-I 4 W/m 5,0 C 3,5 C 15,8 km/h (3 Bft) 0,00 %
23.04.2015 19:45 5,8 C 95 % 1017,8 hPa 0,0 l/m 4,0 km/h (1 Bft) O-SO 111 0 min 0,000 mm 0,0 UV-I 0 W/m 5,1 C 5,8 C 7,9 km/h (2 Bft) 0,00 %
23.04.2015 20:00 5,7 C 95 % 1017,9 hPa 0,0 l/m 1,8 km/h (1 Bft) O-SO 114 0 min 0,000 mm 0,0 UV-I 0 W/m 5,0 C 5,7 C 4,0 km/h (1 Bft) 0,00 %
23.04.2015 20:15 5,7 C 96 % 1018,0 hPa 0,0 l/m 0,0 km/h (0 Bft) SW 227 0 min 0,000 mm 0,0 UV-I 0 W/m 5,1 C 5,7 C 0,0 km/h (0 Bft) 0,00 %
23.04.2015 20:30 5,6 C 97 % 1017,9 hPa 0,0 l/m 0,0 km/h (0 Bft) S 169 0 min 0,000 mm 0,0 UV-I 0 W/m 5,2 C 5,6 C 0,0 km/h (0 Bft) 0,00 %
23.04.2015 20:45 5,4 C 99 % 1017,8 hPa 0,0 l/m 0,4 km/h (0 Bft) S-SO 159 0 min 0,000 mm 0,0 UV-I 0 W/m 5,3 C 5,4 C 4,0 km/h (1 Bft) 0,00 %
23.04.2015 21:00 5,4 C 99 % 1017,8 hPa 0,0 l/m 0,0 km/h (0 Bft) S 172 0 min 0,000 mm 0,0 UV-I 0 W/m 5,3 C 5,4 C 0,0 km/h (0 Bft) 0,00 %
23.04.2015 21:15 5,4 C 98 % 1017,6 hPa 0,0 l/m 6,8 km/h (2 Bft) O 95 0 min 0,000 mm 0,0 UV-I 0 W/m 5,1 C 5,1 C 7,9 km/h (2 Bft) 0,00 %
23.04.2015 21:30 5,4 C 98 % 1017,9 hPa 0,0 l/m 0,0 km/h (0 Bft) SW 216 0 min 0,000 mm 0,0 UV-I 0 W/m 5,1 C 5,4 C 0,0 km/h (0 Bft) 0,00 %
23.04.2015 21:45 5,4 C 98 % 1017,8 hPa 0,0 l/m 0,0 km/h (0 Bft) S 177 0 min 0,000 mm 0,0 UV-I 0 W/m 5,1 C 5,4 C 0,0 km/h (0 Bft) 0,00 %
23.04.2015 22:00 5,3 C 99 % 1017,9 hPa 0,0 l/m 0,0 km/h (0 Bft) S 182 0 min 0,000 mm 0,0 UV-I 0 W/m 5,2 C 5,3 C 0,0 km/h (0 Bft) 0,00 %
23.04.2015 22:15 5,3 C 99 % 1017,6 hPa 0,0 l/m 0,0 km/h (0 Bft) S 175 0 min 0,000 mm 0,0 UV-I 0 W/m 5,2 C 5,3 C 0,0 km/h (0 Bft) 0,00 %
23.04.2015 22:30 5,2 C 99 % 1017,5 hPa 0,0 l/m 0,0 km/h (0 Bft) SW 220 0 min 0,000 mm 0,0 UV-I 0 W/m 5,1 C 5,2 C 0,0 km/h (0 Bft) 0,00 %
23.04.2015 22:45 5,1 C 99 % 1017,5 hPa 0,0 l/m 0,0 km/h (0 Bft) S-SO 162 0 min 0,000 mm 0,0 UV-I 0 W/m 5,0 C 5,1 C 0,0 km/h (0 Bft) 0,00 %
23.04.2015 23:00 5,2 C 99 % 1017,3 hPa 0,0 l/m 0,0 km/h (0 Bft) S 175 0 min 0,000 mm 0,0 UV-I 0 W/m 5,1 C 5,2 C 0,0 km/h (0 Bft) 0,00 %
23.04.2015 23:15 5,2 C 99 % 1017,3 hPa 0,0 l/m 0,0 km/h (0 Bft) S 175 0 min 0,000 mm 0,0 UV-I 0 W/m 5,1 C 5,2 C 0,0 km/h (0 Bft) 0,00 %
23.04.2015 23:30 5,2 C 99 % 1017,5 hPa 0,0 l/m 0,0 km/h (0 Bft) S 173 0 min 0,000 mm 0,0 UV-I 0 W/m 5,1 C 5,2 C 0,0 km/h (0 Bft) 0,00 %
23.04.2015 23:45 5,1 C 99 % 1017,6 hPa 0,0 l/m 0,0 km/h (0 Bft) S 173 0 min 0,000 mm 0,0 UV-I 0 W/m 5,0 C 5,1 C 0,0 km/h (0 Bft) 0,00 %
_ Min-Zeit 22:45 00:30 23:00 - 00:00 - - - - - - 01:00 19:30 00:00 00:00
Minimum _ 5,1 C 69 % 1017,3 hPa - 0,0 km/h (0 Bft) - - - - - - 4,1 C 3,5 C 0,0 km/h (0 Bft) 0,00 %
_ Max-Zeit 00:00 20:45 01:00 05:00 19:30 - - 09:00 00:00 09:00 09:00 10:30 00:00 19:30 00:00
Maximum _ 9,8 C 99 % 1019,7 hPa 1,2 l/m 9,4 km/h
O (2 Bft)
- - 15 min 0,000 mm 2,0 UV-I 266 W/m 6,5 C 9,8 C 15,8 km/h
O (3 Bft)
0,00 %
Durchschnitt _ 7,0 C 89 % 1018,5 hPa #6,3 l/m 0,8 km/h (0 Bft) W-NW - #15 min. #0,000 mm 1,2 UV-I 80 W/m 5,3 C 7,0 C 1,9 km/h (1 Bft) 0,00 %